Madison, SD

4:57 PM CST on November 24, 2017 (GMT -0600)
Madison Municipal

Weather History for KMDS - January, 2013

Change the Weather History Date:

Tuesday, January 22, 2013

  Actual Average Record
Temperature  
Mean Temperature 7 °F -  
Max Temperature 14 °F 29 °F 32 °F (2015)
Min Temperature 0 °F 7 °F -9 °F (2011)
Degree Days  
Heating Degree Days 58    
Moisture  
Dew Point 3 °F    
Average Humidity 85    
Maximum Humidity 100    
Minimum Humidity 66    
Precipitation  
Precipitation 0.00 in - - ()
Sea Level Pressure  
Sea Level Pressure 30.21 in    
Wind  
Wind Speed 7 mph (SSW)    
Max Wind Speed 14 mph    
Max Gust Speed -    
Visibility 10 miles    
Events Snow    
Averages and records for this station are not official NWS values.
T = Trace of Precipitation, MM = Missing Value Source: NWS Daily Summary

Daily Weather History Graph

Daily Weather History Graph

Search for Another Location

Airport or City:

Trip Planner

Search our weather history database for the weather conditions in past years. The results will help you decide how hot, cold, wet, or windy it might be!

Date:

Astronomy

Jan. 22, 2013 Rise Set
Actual Time 7:55 AM CST 5:25 PM CST
Civil Twilight 7:23 AM CST 5:56 PM CST
Nautical Twilight 6:48 AM CST 6:32 PM CST
Astronomical Twilight 6:14 AM CST 7:06 PM CST
Moon 1:47 PM CST (1/22) 4:19 AM CST (1/22)
Length of Visible Light 10h 33m
Length of Day
9h 30m
Waxing Gibbous, 83% of the Moon is Illuminated
Jan 22
Waxing Gibbous
Jan 26
Full
Feb 3
Last Quarter
Feb 10
New
Feb 17
First Quarter

Hourly Weather History & Observations

Time (CST) Temp. Windchill Dew Point Humidity Pressure Visibility Wind Dir Wind Speed Gust Speed Precip Events Conditions
12:00 AM 1.4 °F -14.5 °F -2.2 °F 85% 30.25 in 10.0 mi NW 10.4 mph - N/A   Mostly Cloudy
12:20 AM 1.4 °F -14.5 °F -2.2 °F 85% 30.25 in 10.0 mi NW 10.4 mph - N/A   Mostly Cloudy
12:40 AM 1.4 °F -13.5 °F -2.2 °F 85% 30.25 in 10.0 mi NW 9.2 mph - N/A   Mostly Cloudy
1:00 AM 1.4 °F -12.5 °F -2.2 °F 85% 30.25 in 10.0 mi NW 8.1 mph - N/A   Partly Cloudy
1:20 AM 1.4 °F -11.3 °F -2.2 °F 85% 30.25 in 10.0 mi NNW 6.9 mph - N/A   Clear
1:40 AM 1.4 °F -9.9 °F -2.2 °F 85% 30.24 in 10.0 mi NNW 5.8 mph - N/A   Clear
2:00 AM 1.4 °F -8.3 °F -0.4 °F 92% 30.25 in 10.0 mi NW 4.6 mph - N/A   Clear
2:20 AM 1.4 °F -11.3 °F -0.4 °F 92% 30.25 in 10.0 mi NNW 6.9 mph - N/A   Clear
2:40 AM 1.4 °F -11.3 °F -2.2 °F 85% 30.26 in 10.0 mi NNW 6.9 mph - N/A   Mostly Cloudy
3:00 AM 1.4 °F -11.3 °F -4.0 °F 78% 30.26 in 10.0 mi North 6.9 mph - N/A   Overcast
3:20 AM 1.4 °F -11.3 °F -4.0 °F 78% 30.25 in 10.0 mi NNW 6.9 mph - N/A   Overcast
3:40 AM 1.4 °F -8.3 °F -2.2 °F 85% 30.25 in 10.0 mi NW 4.6 mph - N/A   Overcast
4:00 AM 1.4 °F -6.2 °F -4.0 °F 78% 30.26 in 10.0 mi NNW 3.5 mph - N/A   Overcast
4:20 AM -0.4 °F - -4.0 °F 85% 30.26 in 10.0 mi Calm Calm - N/A   Mostly Cloudy
4:40 AM -0.4 °F -12.0 °F -4.0 °F 85% 30.25 in 10.0 mi NNE 5.8 mph - N/A   Scattered Clouds
5:00 AM -0.4 °F -8.3 °F -4.0 °F 85% 30.25 in 10.0 mi NNW 3.5 mph - N/A   Scattered Clouds
5:20 AM -0.4 °F - -4.0 °F 85% 30.25 in 10.0 mi Calm Calm - N/A   Partly Cloudy
5:40 AM -0.4 °F - -4.0 °F 85% 30.25 in 10.0 mi Calm Calm - N/A   Scattered Clouds
6:00 AM 1.4 °F -8.3 °F -4.0 °F 78% 30.27 in 10.0 mi North 4.6 mph - N/A   Overcast
6:20 AM 1.4 °F - -4.0 °F 78% 30.27 in 10.0 mi Calm Calm - N/A   Overcast
6:40 AM 1.4 °F - -4.0 °F 78% 30.27 in 10.0 mi Calm Calm - N/A   Overcast
7:00 AM 1.4 °F -6.2 °F -4.0 °F 78% 30.27 in 10.0 mi NNE 3.5 mph - N/A   Overcast
7:20 AM 1.4 °F - -5.8 °F 72% 30.26 in 10.0 mi Calm Calm - N/A   Overcast
7:40 AM 1.4 °F - -7.6 °F 66% 30.26 in 10.0 mi Calm Calm - N/A   Overcast
8:00 AM 1.4 °F -6.2 °F -4.0 °F 78% 30.26 in 10.0 mi SW 3.5 mph - N/A   Overcast
8:20 AM 1.4 °F -9.9 °F -4.0 °F 78% 30.25 in 10.0 mi South 5.8 mph - N/A   Mostly Cloudy
8:40 AM 1.4 °F -6.2 °F -4.0 °F 78% 30.26 in 10.0 mi SSW 3.5 mph - N/A   Clear
9:00 AM 1.4 °F -8.3 °F -4.0 °F 78% 30.26 in 10.0 mi South 4.6 mph - N/A   Clear
9:20 AM 3.2 °F -6.2 °F -4.0 °F 72% 30.26 in 10.0 mi SSW 4.6 mph - N/A   Clear
9:40 AM 3.2 °F -6.2 °F -2.2 °F 78% 30.27 in 10.0 mi SW 4.6 mph - N/A   Clear
10:00 AM 5.0 °F -5.6 °F -0.4 °F 78% 30.26 in 10.0 mi SSW 5.8 mph - N/A   Clear
10:20 AM 5.0 °F -4.1 °F -0.4 °F 78% 30.27 in 10.0 mi South 4.6 mph - N/A   Clear
10:40 AM 5.0 °F -8.1 °F -0.4 °F 78% 30.27 in 10.0 mi SSW 8.1 mph - N/A   Clear
11:00 AM 6.8 °F -4.8 °F -2.2 °F 67% 30.27 in 10.0 mi SSW 6.9 mph - N/A   Clear
11:20 AM 8.6 °F -3.7 °F -0.4 °F 67% 30.27 in 10.0 mi SW 8.1 mph - N/A   Clear
11:40 AM 8.6 °F -3.7 °F -0.4 °F 67% 30.26 in 10.0 mi SW 8.1 mph - N/A   Partly Cloudy
12:00 PM 8.6 °F -3.7 °F -0.4 °F 67% 30.25 in 10.0 mi SW 8.1 mph - N/A   Mostly Cloudy
12:20 PM 8.6 °F -5.5 °F -0.4 °F 67% 30.24 in 10.0 mi SW 10.4 mph - N/A   Overcast
12:40 PM 8.6 °F -4.7 °F -0.4 °F 67% 30.24 in 10.0 mi SW 9.2 mph - N/A   Mostly Cloudy
1:00 PM 10.4 °F -3.3 °F 1.4 °F 67% 30.21 in 10.0 mi SSW 10.4 mph - N/A   Overcast
1:20 PM 10.4 °F -3.3 °F 1.4 °F 67% 30.21 in 10.0 mi SSW 10.4 mph - N/A   Overcast
1:40 PM 10.4 °F -3.3 °F 3.2 °F 73% 30.20 in 10.0 mi SW 10.4 mph - N/A   Overcast
2:00 PM 10.4 °F -1.5 °F 5.0 °F 79% 30.19 in 10.0 mi SSW 8.1 mph - N/A   Overcast
2:20 PM 10.4 °F -2.4 °F 5.0 °F 79% 30.19 in 10.0 mi SSW 9.2 mph - N/A   Overcast
2:40 PM 10.4 °F -1.5 °F 6.8 °F 85% 30.19 in 10.0 mi South 8.1 mph - N/A   Overcast
3:00 PM 10.4 °F -0.4 °F 6.8 °F 85% 30.19 in 10.0 mi South 6.9 mph - N/A   Overcast
3:20 PM 10.4 °F -1.5 °F 6.8 °F 85% 30.19 in 10.0 mi South 8.1 mph - N/A   Overcast
3:40 PM 10.4 °F -2.4 °F 6.8 °F 85% 30.18 in 10.0 mi South 9.2 mph - N/A Snow Light Snow
4:00 PM 10.4 °F -2.4 °F 8.6 °F 92% 30.18 in 10.0 mi South 9.2 mph - N/A Snow Light Snow
4:20 PM 10.4 °F -2.4 °F 8.6 °F 92% 30.18 in 10.0 mi SSW 9.2 mph - N/A   Overcast
4:40 PM 10.4 °F -2.4 °F 8.6 °F 92% 30.18 in 10.0 mi South 9.2 mph - N/A Snow Light Snow
5:00 PM 10.4 °F -3.3 °F 8.6 °F 92% 30.17 in 10.0 mi South 10.4 mph - N/A   Overcast
5:20 PM 10.4 °F -3.3 °F 8.6 °F 92% 30.17 in 10.0 mi South 10.4 mph - N/A   Overcast
5:35 PM 10.4 °F -1.5 °F 10.4 °F 100% 30.18 in 10.0 mi South 8.1 mph - N/A   Overcast
6:00 PM 10.4 °F -3.3 °F 10.4 °F 100% 30.17 in 10.0 mi South 10.4 mph - N/A   Overcast
6:20 PM 10.4 °F -2.4 °F 10.4 °F 100% 30.16 in 10.0 mi South 9.2 mph - N/A   Overcast
6:40 PM 10.4 °F -2.4 °F 10.4 °F 100% 30.17 in 10.0 mi South 9.2 mph - N/A   Overcast
7:00 PM 10.4 °F -2.4 °F 10.4 °F 100% 30.16 in 10.0 mi South 9.2 mph - N/A   Overcast
7:20 PM 10.4 °F -4.8 °F 10.4 °F 100% 30.15 in 10.0 mi South 12.7 mph - N/A   Overcast
7:40 PM 10.4 °F -4.8 °F 10.4 °F 100% 30.14 in 10.0 mi South 12.7 mph - N/A   Overcast
8:00 PM 10.4 °F -2.4 °F 10.4 °F 100% 30.14 in 10.0 mi South 9.2 mph - N/A   Overcast
8:20 PM 10.4 °F -1.5 °F 10.4 °F 100% 30.14 in 10.0 mi South 8.1 mph - N/A   Overcast
8:40 PM 12.2 °F -1.0 °F 12.2 °F 100% 30.14 in 10.0 mi South 10.4 mph - N/A   Overcast
9:00 PM 12.2 °F -1.0 °F 12.2 °F 100% 30.14 in 10.0 mi SSW 10.4 mph - N/A   Overcast
9:20 PM 12.2 °F -3.1 °F 12.2 °F 100% 30.13 in 10.0 mi South 13.8 mph - N/A   Overcast
9:40 PM 12.2 °F -1.0 °F 12.2 °F 100% 30.13 in 10.0 mi South 10.4 mph - N/A   Overcast
10:00 PM 12.2 °F -2.5 °F 12.2 °F 100% 30.12 in 10.0 mi South 12.7 mph - N/A   Overcast
10:20 PM 14.0 °F -0.8 °F 14.0 °F 100% 30.10 in 10.0 mi South 13.8 mph - N/A   Overcast
10:40 PM 14.0 °F -0.2 °F 14.0 °F 100% 30.11 in 10.0 mi South 12.7 mph - N/A   Overcast
11:00 PM 14.0 °F -0.8 °F 14.0 °F 100% 30.10 in 10.0 mi South 13.8 mph - N/A   Overcast
11:20 PM 14.0 °F 0.5 °F 14.0 °F 100% 30.10 in 10.0 mi SSW 11.5 mph - N/A   Overcast
11:40 PM 14.0 °F -0.2 °F 14.0 °F 100% 30.10 in 10.0 mi SSW 12.7 mph - N/A   Overcast